Regional Weather Roundup
Issued by NWS

Home | Current Version | Previous Version | Text Only | Print | Product List | Glossary Off
Versions: 1 2 3 4 5 6 7 8 9 10 11 12 13 14 15 16 17 18 19 20 21 22 23 24 25 26 27 28 29 30 31 32 33 34 35 36 37 38 39 40 41 42 43 44 45 46 47 48 49 50

000
ASUS43 KMKX 211611
RWRWI

WISCONSIN REGIONAL WEATHER ROUNDUP
NATIONAL WEATHER SERVICE MILWAUKEE/SULLIVAN WI
1000 AM CST WED FEB 21 2018

NOTE: "FAIR" INDICATES FEW OR NO CLOUDS BELOW 12,000 FEET WITH NO
SIGNIFICANT WEATHER AND/OR OBSTRUCTIONS TO VISIBILITY.

WIZ001-002-006>008-014>016-023>028-211700-
NORTHWEST WISCONSIN

CITY           SKY/WX    TMP DP  RH WIND       PRES   REMARKS
SUPERIOR ARPT  FAIR       7  -2  67 SW9       30.52R WCI  -7
ASHLAND        FAIR       8   1  73 SW10      30.52R WCI  -6
HAYWARD        FAIR       6   1  80 S6        30.52R WCI  -4
SIREN          FAIR       9  -1  65 SW6       30.56R WCI  -1
CUMBERLAND     FAIR       5   0  78 SW6       30.53R WCI  -6
RICE LAKE      FAIR       7   2  82 W3        30.57R
CHETEK         FAIR       8   0  72 S5        30.56R WCI  -1
LADYSMITH      FAIR       8   1  73 CALM      30.54R
EAU CLAIRE     FAIR       8   2  76 SW6       30.59R WCI  -2
MENOMONIE      FAIR      10   2  68 S3        30.60R
NEW RICHMOND   FAIR       9   0  68 SW5       30.58R WCI   0
OSCEOLA        FAIR       9   0  68 SW5       30.61R WCI   1
$$

WIZ003>005-009-010-017-018-211700-
NORTH CENTRAL WISCONSIN

CITY           SKY/WX    TMP DP  RH WIND       PRES   REMARKS
MANITOWISH WTR FAIR       6   2  81 W6        30.44R WCI  -4
ARBOR VITAE    FAIR      11   5  76 NW3       30.45R
WOODRUFF       FAIR      11   5  76 NW3       30.45R
RHINELANDER    FAIR      11   3  70 W8        30.46R WCI  -1
EAGLE RIVER    FAIR      10   1  69 W7        30.44R WCI  -2
LAND O LAKES   FAIR      11   3  71 SW6       30.46R WCI   1
PHILLIPS       FAIR       7   2  77 SW5       30.49R WCI  -1
TOMAHAWK       FAIR      10   3  72 W7        30.50R WCI  -1
MEDFORD        FAIR       8   2  76 W3        30.51R
MERRILL        FAIR      11   3  68 NW6       30.52R WCI   2
$$

WIZ029-030-035-036-043>047-211700-
CENTRAL WISCONSIN

CITY           SKY/WX    TMP DP  RH WIND       PRES   REMARKS
WAUSAU         FAIR      10   3  73 W9        30.52R WCI  -3
MOSINEE        MOSUNNY   10   7  85 W8        30.54R WCI  -1
MARSHFIELD     FAIR       9   3  77 W6        30.53R WCI  -1
STEVENS POINT  FAIR      11   3  71 W5        30.56R WCI   3
WAUPACA        FAIR      19   7  59 W8        30.58R WCI   9
WAUTOMA        NOT AVBL
WISC RAPIDS    FAIR      14   4  64 NW7       30.58R WCI   4
CAMP DOUGLAS   PTSUNNY   16   7  67 NW7       30.59R WCI   6
$$

WIZ011>013-019>022-031-037>040-048>050-211700-
NORTHEAST WISCONSIN

CITY           SKY/WX    TMP DP  RH WIND       PRES   REMARKS
ANTIGO         FAIR      10   2  73 NW8       30.49R WCI  -3
SHAWANO        FAIR      19   8  63 W5        30.54S WCI  12
OCONTO         FAIR      19   9  65 W10       30.55R WCI   7
STURGEON BAY   FAIR      19  10  68 NW13      30.53R WCI   6
GREEN BAY      FAIR      20  10  65 NW10      30.55R WCI   9
MANITOWOC      FAIR      22  13  68 NW12      30.55R WCI  10
APPLETON       MOSUNNY   18   7  62 NW12      30.53R WCI   5
CLINTONVILLE   FAIR      15   5  63 NW7       30.55S WCI   6
OSHKOSH        FAIR      18   9  68 NW14      30.56R WCI   4
$$

WIZ032>034-041-042-053>061-211700-
SOUTHWEST WISCONSIN

CITY           SKY/WX    TMP DP  RH WIND       PRES   REMARKS
LA CROSSE      FAIR      15   5  64 N3        30.63R
SPARTA         FAIR      14   7  73 NW3       30.62R
VIROQUA        FAIR      13   8  80 N3        30.57R
BOSCOBEL       FAIR      18   6  59 NW8       30.64R WCI   8
PRAIRIE DU CHI FAIR      16   3  56 NW7       30.65R WCI   6
PLATTEVILLE    FAIR      18  12  78 NW13      30.60R WCI   5
$$

WIZ056-057-062-063-064-067-068-211700-
SOUTH CENTRAL WISCONSIN

CITY           SKY/WX    TMP DP  RH WIND       PRES   REMARKS
REEDSBURG      FAIR      16   6  66 NW6       30.59R WCI   7
BARABOO/DELLS  FAIR      16   6  65 N8        30.58R WCI   5
LONE ROCK      FAIR      19  11  70 NW8       30.62R WCI   9
MINERAL POINT  FAIR      21  14  73 N10       30.57R WCI  10
MADISON        PTSUNNY   20  12  71 N12       30.57R WCI   8
MIDDLETON      FAIR      22  15  72 NW10      30.58R WCI  11
WATERTOWN      FAIR      20  14  76 NW8       30.56R WCI  11
MONROE         FAIR      21  14  73 N8        30.55R WCI  12
JANESVILLE     CLOUDY    25  16  68 N9        30.56R WCI  15
$$

WIZ051-052-058>065-066-070>072-211700-
SOUTHEAST WISCONSIN

CITY           SKY/WX    TMP DP  RH WIND       PRES   REMARKS
MILWAUKEE      CLOUDY    26  14  60 NW13      30.54R WCI  15
WAUKESHA       SUNNY     21  12  68 NW13      30.55R WCI   9
MILWAUKEE/TIMM SUNNY     25  12  58 NW10      30.55R WCI  15
RACINE         FAIR      26  15  63 N12       30.56R WCI  16
BURLINGTON     FAIR      25  16  69 NW9       30.55R WCI  15
KENOSHA        FAIR      26  17  68 NW12      30.54R WCI  16
FOND DU LAC    FAIR      20  11  68 NW13      30.56R WCI   7
SHEBOYGAN      FAIR      22  13  68 NW13      30.54R WCI  10
WEST BEND      FAIR      23  16  74 NW9       30.55R WCI  13
JUNEAU         FAIR      18  12  78 NW7       30.56R WCI   9
$$

LSZ147-162-211700-
LAKE SUPERIOR

STATION/POSITION TIME  TEMP    WIND        PRES    WAVE
                       AIR SEA DIR/SP/G            HT/PER
                 (UTC) (F)     (DEG/KT/KT) (MB)    (FT/S)
DEVILS ISLAND    1600    9     210/ 11/ 13 1033.9R
SAXON HARBOR     1540   11     190/  9/ 12 1032.8R
$$

LMZ867-665-643>646-211700-
LAKE MICHIGAN

STATION/POSITION TIME  TEMP    WIND        PRES    WAVE
                       AIR SEA DIR/SP/G            HT/PER
                 (UTC) (F)     (DEG/KT/KT) (MB)    (FT/S)
NORTHPORT PIER   1540   18                 1033.2R
KEWAUNEE LAKESHO 1542   20     310/  9/ 13 1033.1R
SHEBOYGAN LAKESH 1500   21     320/ 17/ 20 1034.6R
PORT WASHINGTON  1530   23     320/ 10/ 15 1035.2R
MILWAUKEE LAKESH 1550   24     330/ 10/ 13   N/A
KENOSHA   LAKESH 1600   25     310/  7/ 13 1034.2
$$

TC  - TEMPERATURE IN CELSIUS
VSB - VISIBILITY IN STATUTE MILES
WCI - WIND CHILL INDEX
HX  - HEAT INDEX




USA.gov is the U.S. government's official web portal to all federal, state and local government web resources and services.